Location: Zilina
(0.0000°N, 18.7333°E)
Time: 09:20:21
(UTC+01:00)

CSL-04 Debris - Pass Details

Date: 19 February 2019
Orbit: 827 x 849 km, 99.0° (Epoch: 26 March)

Event Time Altitude Azimuth Distance (km) Brightness Sun altitude
Rises 18:20:18 0° 167° (SSE) 3,382 7.3 -5.2°
Reaches altitude 10° 18:22:39 10° 167° (SSE) 2,450 6.6 -5.8°
Maximum altitude 18:28:05 88° 78° (ENE) 844 4.2 -7.2°
Drops below altitude 10° 18:33:33 10° 348° (NNW) 2,454 6.6 -8.5°
Sets 18:35:54 0° 348° (NNW) 3,389 7.4 -9.1°
